Wind_Speed
18 18 10 4 4 4 4 3 3 7 7 4 7 2 8 5 2 3 6 28 25 40 38 36 33 33 33 32 29 28 28 29 30 32 32 30 27 24 22 20 19 17 16 15 14 13 13 12 12
16 14 4 2 4 1 5 4 3 3 5 8 6 4 6 3 2 4 7 12 28 42 39 37 34 33 33 32 31 30 28 28 28 29 29 27 25 23 22 20 19 18 16 15 14 13 13 13 13
10 5 3 3 3 5 4 3 5 6 8 3 2 2 3 2 2 6 4 19 32 37 38 36 34 32 32 32 30 30 29 28 27 27 26 25 24 23 22 21 19 17 15 14 13 13 13 13 12
5 5 4 3 7 6 5 5 5 13 5 8 0 4 2 0 1 6 20 23 37 33 37 35 34 31 30 30 29 29 28 28 28 27 25 24 22 21 20 19 17 16 14 13 12 12 12 12 10
2 3 1 1 7 4 3 7 8 11 4 7 0 3 4 3 5 17 24 30 38 36 36 36 35 33 31 30 29 28 28 27 27 27 26 24 22 20 19 18 16 14 12 11 10 9 9 9 8
2 3 2 4 8 9 1 4 6 5 6 3 3 4 3 2 13 21 26 34 34 35 34 34 33 34 33 31 30 29 28 28 26 25 25 25 23 20 18 16 15 13 12 10 9 8 7 6 6
5 4 6 5 5 10 2 1 7 6 11 7 5 6 3 3 18 24 26 28 31 33 33 32 33 33 32 31 30 30 30 29 27 24 24 24 22 21 19 17 15 13 12 10 8 6 5 4 3
4 4 4 5 6 13 4 1 5 7 14 8 3 5 6 5 13 25 24 26 28 31 35 34 35 34 33 33 31 29 28 29 29 28 25 23 22 21 19 17 15 13 12 10 8 6 5 3 3
4 2 5 8 8 14 9 3 1 5 6 6 5 5 10 17 14 24 24 22 23 26 30 26 29 35 35 35 33 30 28 26 26 27 27 25 23 22 20 18 15 13 11 9 8 6 6 6 6
4 4 8 4 7 10 7 4 4 6 13 8 11 5 10 14 15 17 18 20 23 25 32 30 29 35 34 34 34 33 32 30 29 28 27 26 25 22 20 18 16 14 12 10 8 8 8 9 9
5 9 4 4 5 9 14 14 5 5 11 10 13 7 5 8 8 12 18 29 37 35 32 33 27 34 35 31 34 35 34 33 31 30 29 28 25 23 22 19 18 16 14 12 11 10 11 12 12
5 5 5 8 9 10 12 10 13 6 13 10 12 7 5 10 9 8 11 18 22 32 35 37 34 32 33 32 33 29 30 33 32 33 31 29 28 27 25 23 21 19 16 14 12 11 10 11 12
5 6 9 12 12 10 12 16 12 21 15 10 15 7 11 10 10 21 25 22 22 24 31 37 38 34 36 34 27 26 26 28 31 34 33 32 31 29 27 25 22 19 16 15 13 12 12 10 11
3 4 7 7 8 6 8 13 5 18 10 15 17 11 8 10 11 8 15 27 28 29 34 35 40 41 40 40 37 34 33 35 38 36 35 33 31 30 28 25 23 20 17 15 14 14 15 14 14
3 5 6 4 4 4 6 7 15 8 10 12 10 8 8 11 9 12 28 27 30 30 33 37 38 41 43 46 43 40 42 41 39 39 37 35 33 30 29 26 24 22 18 15 14 15 16 17 16
6 3 4 4 1 6 4 14 13 7 5 9 10 9 9 9 12 25 20 25 30 30 30 34 37 40 42 37 40 43 43 44 43 42 40 36 35 31 29 27 26 22 19 17 18 15 15 16 18
5 5 5 7 4 4 6 9 7 7 7 10 11 10 10 9 8 19 24 20 22 31 33 36 35 37 42 39 35 33 32 35 29 32 38 40 39 33 31 30 28 24 23 19 19 19 17 17 16
5 5 6 5 4 1 10 17 9 10 7 13 10 13 10 10 13 23 24 25 23 27 35 35 35 35 38 36 33 32 28 30 32 31 29 33 38 34 35 31 27 25 23 21 18 20 18 17 15
5 5 10 13 15 4 12 13 9 10 8 13 10 10 10 12 10 18 24 25 25 28 32 34 35 32 35 33 31 28 27 29 32 28 24 33 33 35 39 34 28 25 25 24 20 18 17 18 18
8 12 15 11 14 6 10 14 9 7 9 7 10 9 10 6 4 2 7 19 28 35 32 30 29 29 35 36 34 25 26 22 29 37 36 31 31 32 35 33 26 27 24 22 21 20 17 19 15
10 7 12 12 6 5 2 9 6 4 5 6 6 3 5 8 8 6 5 16 26 28 30 29 27 24 25 30 27 19 13 11 16 21 27 33 35 39 42 36 28 26 23 26 20 21 20 20 13
6 9 9 9 4 7 3 11 5 5 8 6 9 8 9 9 8 7 10 10 20 32 31 28 25 23 21 20 23 24 23 20 18 19 22 23 28 34 31 31 27 21 21 28 14 25 26 21 20
7 7 7 9 5 1 2 1 8 2 6 9 9 11 11 10 9 11 11 21 30 31 33 31 28 24 20 18 16 13 9 12 11 10 10 10 21 34 29 27 28 32 33 23 38 23 29 21 24
8 6 5 5 2 3 7 7 14 9 7 5 5 8 12 15 11 10 17 24 22 25 31 30 27 22 19 16 14 12 9 10 10 10 12 15 15 16 22 27 26 24 25 27 31 37 40 43 34
9 6 5 4 3 13 8 4 17 4 6 8 9 10 14 16 16 11 11 12 18 24 32 32 27 21 17 14 12 11 10 10 9 8 7 6 12 20 22 21 22 21 23 26 27 29 32 35 36
3 4 3 7 5 7 4 8 18 4 7 8 8 7 10 12 12 13 15 16 25 26 30 29 26 23 20 18 14 11 9 8 9 8 7 7 8 11 12 15 18 21 23 23 22 26 31 33 29
4 5 3 4 5 4 5 8 13 13 7 4 8 10 13 12 9 9 4 13 25 26 31 30 26 24 22 18 15 14 13 14 13 11 10 9 9 10 11 10 9 12 14 19 25 29 30 33 30
1 3 0 2 4 5 4 5 7 11 8 8 1 10 8 11 14 12 9 9 11 10 31 29 29 27 25 22 21 21 20 18 16 14 12 12 11 11 11 11 13 14 14 16 20 24 26 31 33
2 2 1 2 3 3 3 5 3 5 6 13 7 4 5 6 7 8 8 13 12 9 11 24 32 32 30 28 27 25 22 19 15 15 14 14 13 12 12 11 12 13 15 16 20 23 27 28 29
4 5 5 3 3 3 4 5 4 7 7 14 17 8 6 4 6 4 6 7 12 9 9 19 20 34 35 34 32 28 24 20 17 15 16 17 18 17 15 15 14 14 15 17 19 22 24 26 28
Wind_Direction
329 335 336 29 58 50 261 270 234 299 340 334 303 274 131 106 256 222 340 162 170 166 166 166 165 162 156 152 150 147 146 146 146 147 149 150 148 148 149 150 150 151 148 142 135 129 125 122 119
334 338 15 76 96 108 283 222 295 266 272 307 300 356 39 31 89 103 97 178 170 164 167 166 167 164 159 157 154 152 150 150 150 150 150 150 151 153 154 154 152 151 146 142 137 133 130 127 127
339 358 71 106 131 195 218 220 277 289 301 326 188 89 60 350 7 138 189 166 169 165 168 168 167 166 163 160 158 157 155 155 155 155 155 155 156 157 156 154 151 148 146 142 138 134 132 131 134
337 13 31 108 227 258 212 299 339 326 358 342 8 39 339 173 212 175 159 168 170 170 170 169 168 169 167 164 161 160 158 159 160 160 160 160 160 159 156 154 151 149 148 146 142 139 137 135 140
59 68 74 235 259 238 270 314 308 310 333 304 29 315 346 21 147 156 164 169 174 173 173 172 171 171 171 169 166 164 161 162 162 163 163 164 162 160 159 156 155 153 151 152 149 145 140 139 145
56 95 98 225 252 258 196 313 291 306 339 268 61 120 256 83 161 166 169 173 179 175 175 175 176 173 174 174 171 169 166 165 167 167 168 167 165 164 164 163 161 160 160 162 161 158 156 153 153
140 107 209 217 256 280 223 256 308 321 325 265 206 146 246 243 190 175 176 176 177 178 177 178 180 178 176 177 178 174 172 170 169 172 173 172 169 168 170 170 170 168 170 173 176 183 183 181 180
127 115 205 214 227 263 249 269 318 321 307 331 359 195 220 227 169 184 174 177 179 183 181 180 182 181 180 181 182 181 179 175 174 174 178 178 176 175 177 178 179 179 181 187 193 203 218 238 263
121 146 219 214 209 246 303 292 135 288 273 340 253 228 225 154 148 163 155 161 174 183 184 177 180 186 184 184 182 184 185 185 183 180 181 182 184 183 185 187 189 190 193 199 213 227 241 258 271
163 193 226 183 225 269 277 251 315 325 305 300 306 302 72 97 146 139 159 157 169 182 190 183 181 187 187 187 186 186 187 188 190 190 188 190 189 190 194 196 198 201 205 213 229 247 263 271 282
200 236 209 239 239 252 274 278 269 244 278 262 274 236 180 106 107 140 170 175 180 186 188 189 181 185 188 188 189 189 190 192 195 195 196 195 195 195 201 204 207 211 216 225 236 251 268 277 281
239 239 235 263 244 250 258 269 264 234 254 246 269 220 217 146 150 159 179 179 179 181 187 190 187 185 191 188 190 191 190 195 198 200 201 199 200 203 203 209 213 218 222 230 243 259 272 284 286
205 238 248 248 251 241 257 263 262 265 263 268 275 235 199 185 169 167 181 184 187 184 184 191 191 190 191 192 186 190 196 198 200 203 204 206 206 210 210 212 218 224 230 238 246 259 272 285 291
219 243 261 270 262 249 240 259 214 257 246 255 261 250 202 199 191 161 178 181 187 190 194 196 200 204 198 198 198 196 199 205 208 207 209 210 215 216 219 219 221 227 230 242 255 264 278 286 289
276 304 322 244 258 254 181 271 243 235 222 224 244 231 197 236 229 196 181 189 192 191 196 199 201 204 204 204 206 206 208 210 212 213 210 216 217 220 226 227 230 233 235 243 253 263 277 286 292
356 49 324 281 328 264 168 262 278 214 231 254 255 252 248 210 215 229 216 189 193 198 201 202 201 205 204 202 207 208 211 210 212 215 216 213 220 223 229 229 235 239 244 250 256 261 273 282 291
357 257 262 302 216 236 198 276 270 296 208 235 246 252 253 258 244 225 232 219 195 199 200 205 205 207 204 205 210 212 214 212 221 223 223 220 219 216 227 232 236 238 245 241 256 264 274 284 290
261 295 289 283 276 213 281 275 264 274 276 270 227 230 232 237 241 249 239 226 216 204 200 204 204 209 206 206 210 216 216 215 214 230 242 239 231 220 218 226 232 236 240 245 248 258 270 281 287
234 247 259 276 277 275 264 266 264 269 293 289 277 219 226 242 254 251 244 235 211 198 195 195 197 202 197 199 200 208 213 207 215 214 226 251 242 231 226 212 218 224 233 242 249 250 265 277 285
239 258 273 276 263 210 259 268 264 249 261 258 275 217 216 229 255 321 229 203 194 183 186 182 187 194 200 200 203 204 211 206 204 213 215 222 237 244 235 225 204 220 226 228 237 242 258 272 282
262 250 266 251 265 263 272 284 286 260 261 285 294 246 275 233 227 200 226 210 183 178 177 179 178 175 185 200 202 201 204 207 209 204 221 228 229 225 240 220 222 213 230 237 235 257 252 260 263
275 277 266 265 207 256 153 275 265 242 257 292 291 282 247 232 239 236 200 220 202 187 183 180 181 183 177 181 192 200 202 206 217 222 222 214 226 225 233 235 222 218 216 237 257 266 258 255 255
252 292 279 273 225 116 236 220 274 230 268 264 271 277 281 267 213 214 210 209 207 191 182 177 176 176 176 179 193 205 216 231 225 225 233 238 240 238 243 242 240 231 224 218 231 247 254 265 256
295 330 344 19 121 239 229 178 275 244 223 242 249 272 276 275 263 228 214 206 204 194 181 173 168 170 169 170 169 176 196 225 235 238 236 241 241 238 240 242 248 249 248 235 234 233 252 248 252
28 47 320 293 257 252 152 183 246 279 232 236 279 298 292 277 263 232 187 177 166 176 171 170 171 169 171 172 175 178 190 207 226 233 232 230 257 254 248 251 258 264 254 251 252 255 248 241 231
189 175 225 268 240 269 271 229 256 142 241 231 218 7 329 327 273 214 193 180 175 180 180 170 167 165 171 171 164 165 186 206 218 230 232 239 240 247 255 252 257 263 269 275 274 263 258 253 257
186 191 83 252 224 255 235 274 299 284 279 252 91 49 16 351 15 23 277 179 165 172 180 175 170 169 171 171 176 191 200 210 219 228 235 244 250 257 265 263 269 268 268 271 269 263 261 260 264
151 139 36 219 249 218 279 276 243 298 322 282 97 75 43 13 20 33 35 35 -0 186 184 181 178 175 181 190 199 201 207 213 221 229 238 250 259 261 266 274 274 277 286 284 281 270 267 262 265
141 101 277 249 242 273 303 259 242 35 355 340 349 58 72 70 27 9 23 16 26 318 281 199 188 190 194 201 207 208 212 215 221 231 239 249 259 264 267 274 286 292 288 288 280 279 278 275 272
175 182 181 169 285 302 311 273 102 47 23 359 332 316 288 137 120 70 20 360 345 351 239 249 238 201 202 206 210 214 219 221 225 240 252 255 260 263 265 268 274 275 273 279 280 275 277 275 277
Height
766 764 762 761 791 797 796 782 762 762 753 736 732 732 735 738 745 758 726 727 730 737 741 747 752 754 756 760 764 768 771 774 776 777 780 783 785 788 790 792 795 798 799 800 801 802 804 805 807
767 764 763 772 803 811 795 769 763 756 744 736 731 730 736 742 727 731 733 734 733 734 743 746 752 756 757 761 763 767 772 776 778 781 783 784 786 788 791 793 795 798 799 800 801 803 805 806 807
767 767 774 788 808 807 794 762 762 750 742 736 734 726 730 738 728 728 729 734 739 740 742 748 753 757 760 762 764 768 770 775 780 783 785 787 788 790 792 794 796 798 800 802 803 803 804 806 807
768 769 778 797 799 783 770 761 753 749 741 733 732 739 729 727 726 727 728 732 739 743 745 749 753 759 762 765 767 769 772 775 778 782 786 789 791 793 794 796 797 798 801 802 803 804 805 805 807
768 777 797 801 794 775 762 756 751 753 752 743 735 744 736 726 727 727 730 733 738 741 746 749 752 757 762 766 769 771 774 777 779 782 785 789 791 794 796 797 798 799 801 803 804 805 806 806 807
777 782 807 808 793 764 760 755 751 750 749 743 743 743 738 728 728 730 730 733 739 743 748 752 755 756 761 766 769 772 774 777 781 784 786 788 790 793 796 797 798 800 801 803 804 805 806 807 807
779 792 803 792 789 774 762 752 757 753 751 753 736 748 737 729 727 729 733 736 740 745 749 754 757 759 762 766 771 771 774 776 779 784 787 789 790 792 794 796 797 798 800 802 804 806 807 807 808
773 785 793 790 790 778 758 754 752 754 749 736 735 748 747 726 726 728 734 739 741 746 746 751 755 758 761 765 770 775 777 776 777 781 787 789 790 791 793 795 796 798 800 802 804 805 806 807 807
766 791 801 785 785 766 755 760 751 745 746 745 740 735 722 721 726 729 733 739 743 747 749 751 755 758 759 763 766 772 777 781 783 781 783 787 789 790 792 794 796 798 799 801 804 805 807 807 807
773 791 783 767 767 766 759 759 757 756 749 745 741 731 725 729 727 730 733 734 740 743 746 748 752 757 760 763 766 767 773 776 781 783 785 786 787 789 792 793 794 796 798 800 803 805 806 806 806
769 773 766 761 760 759 756 755 751 752 756 748 746 735 728 730 729 728 731 729 726 735 744 746 750 754 757 762 765 767 769 774 777 780 783 785 787 788 790 792 793 794 796 799 801 803 804 805 805
772 762 761 758 755 758 756 750 751 749 744 736 732 731 729 728 727 727 731 731 733 733 736 742 745 752 757 760 763 766 767 769 773 776 780 782 784 786 786 789 791 792 794 797 799 802 801 802 804
766 762 755 750 750 752 750 750 750 739 734 730 726 727 726 726 723 723 725 728 733 735 735 739 742 749 752 758 762 764 767 769 770 773 777 780 781 783 784 786 788 790 793 796 797 799 801 800 802
756 756 755 751 750 749 751 746 746 727 729 729 724 722 719 720 720 725 724 724 728 730 734 735 738 745 745 751 755 758 761 765 767 770 772 776 778 780 783 785 786 788 789 793 796 797 799 799 799
752 759 755 750 744 747 743 751 740 730 725 725 721 719 720 719 716 717 719 721 722 723 727 731 733 740 740 742 747 752 754 758 763 765 767 772 774 777 781 783 785 786 788 791 793 795 797 798 798
763 763 771 753 747 744 744 753 734 726 726 727 723 718 714 715 713 713 712 715 717 720 725 726 730 733 737 741 744 746 749 751 755 760 764 765 771 775 779 779 782 785 787 789 791 792 793 795 796
780 783 775 764 746 745 746 750 733 724 730 730 725 720 714 711 709 708 709 709 713 716 717 722 725 727 731 735 742 746 749 754 764 766 765 763 763 764 775 776 778 782 785 784 789 792 791 792 792
785 781 772 770 753 746 752 744 736 728 725 721 722 717 714 711 706 701 702 703 708 712 714 718 719 723 727 732 738 744 748 754 756 761 769 769 768 763 767 770 773 778 781 783 784 789 789 788 789
771 774 773 759 746 750 747 740 737 727 723 717 712 715 711 710 700 699 697 701 704 707 712 713 716 720 725 730 734 738 741 749 753 757 755 769 770 766 767 760 765 771 776 780 783 785 787 786 786
767 770 766 752 743 748 743 737 730 724 719 714 711 712 707 703 699 698 699 698 699 700 706 709 712 715 719 724 727 732 736 744 751 755 758 763 761 764 765 762 756 767 771 774 779 782 781 784 783
760 764 757 756 740 736 736 740 729 716 713 707 704 705 705 704 701 698 699 699 698 700 701 704 709 713 717 721 725 729 736 741 746 749 754 754 754 756 764 755 755 755 766 775 775 779 779 779 779
764 743 745 745 751 760 735 753 733 722 718 712 708 704 703 702 700 698 695 698 698 695 698 701 706 711 714 717 722 727 728 733 738 742 745 747 751 755 755 755 753 753 755 774 765 777 778 777 776
753 740 743 742 747 748 747 761 735 721 723 716 706 700 695 691 693 694 693 690 693 695 696 699 703 707 711 716 720 723 727 730 734 737 739 743 746 748 751 752 754 753 757 753 766 764 778 772 773
740 744 744 753 758 763 741 754 729 721 715 707 702 698 693 686 683 683 682 685 689 692 694 697 701 706 710 713 717 719 724 728 730 733 736 738 742 742 746 750 754 752 753 753 756 756 755 767 770
750 765 781 770 765 747 738 748 715 701 704 703 701 697 689 681 675 676 679 680 684 690 692 694 697 702 707 710 713 716 720 724 726 728 731 733 737 739 741 745 748 750 751 754 752 751 755 758 756
758 759 775 765 769 747 736 738 699 696 694 692 693 693 687 681 669 666 667 669 675 684 688 690 694 699 704 708 711 715 719 722 724 725 727 730 734 737 739 740 742 744 746 747 748 750 753 755 752
755 764 760 762 762 756 746 720 695 690 690 686 687 687 690 685 676 672 671 665 666 677 683 686 692 698 703 706 709 713 716 720 721 723 725 727 730 734 736 738 738 741 743 744 748 747 746 748 747
752 758 768 766 756 743 742 733 723 703 700 689 687 686 688 687 682 679 678 678 682 681 681 686 690 694 699 702 706 710 713 715 718 720 722 724 726 729 731 732 734 736 736 738 743 742 740 742 739
758 763 766 767 761 751 746 735 711 714 712 705 691 686 685 688 687 686 682 683 684 687 689 689 689 692 694 699 703 706 709 712 714 717 718 720 722 724 726 728 729 730 733 736 739 737 737 735 734
750 757 760 775 754 751 745 737 708 713 707 705 701 685 682 679 683 685 685 688 689 688 688 692 693 687 689 692 697 701 705 708 710 712 714 716 718 720 722 724 725 728 731 733 734 735 735 733 730